OK1CBR-13 Weather Reports


Display with metric or nautical units.
time (UTC)temp
F
wind
direction
speed
MPH
gust
MPH
rain 1hr
in
rain 24hr
in
rain mn
in
humidity
%
barometer
mb
20260506145733 75 0.0 0.0 0.00 0.00 0.00 40 1005.8
20260506144733 77 0.0 0.0 0.00 0.00 0.00 37 1005.4
20260506143733 78 0.0 0.0 0.00 0.00 0.00 38 1005.4
20260506142733 78 0.0 0.0 0.00 0.00 0.00 36 1005.6
20260506141734 79 0.0 0.0 0.00 0.00 0.00 35 1005.6
20260506140733 80 0.0 0.0 0.00 0.00 0.00 36 1005.7
20260506135733 79 0.0 0.0 0.00 0.00 0.00 36 1005.7
20260506134733 77 0.0 0.0 0.00 0.00 0.00 37 1005.9
20260506133733 77 0.0 0.0 0.00 0.00 0.00 37 1006.0
20260506132733 78 0.0 0.0 0.00 0.00 0.00 37 1006.1
20260506131733 78 0.0 0.0 0.00 0.00 0.00 37 1006.4
20260506130733 76 0.0 0.0 0.00 0.00 0.00 40 1006.5
20260506125733 76 0.0 0.0 0.00 0.00 0.00 39 1006.6
20260506124733 74 0.0 0.0 0.00 0.00 0.00 42 1006.7
20260506123733 73 0.0 0.0 0.00 0.00 0.00 44 1007.0
20260506122733 75 0.0 0.0 0.00 0.00 0.00 41 1007.2
20260506121733 74 0.0 0.0 0.00 0.00 0.00 42 1007.2
20260506120733 73 0.0 0.0 0.00 0.00 0.00 42 1007.2
20260506115733 74 0.0 0.0 0.00 0.00 0.00 41 1007.3
20260506114733 76 0.0 0.0 0.00 0.00 0.00 41 1007.4
20260506113733 74 0.0 0.0 0.00 0.00 0.00 43 1007.5
20260506112733 74 0.0 0.0 0.00 0.00 0.00 44 1007.7
20260506111733 73 0.0 0.0 0.00 0.00 0.00 44 1007.7
20260506110733 72 0.0 0.0 0.00 0.00 0.00 49 1007.8
20260506105733 71 0.0 0.0 0.00 0.00 0.00 50 1007.8
20260506104733 71 0.0 0.0 0.00 0.00 0.00 49 1007.9
20260506103733 70 0.0 0.0 0.00 0.00 0.00 51 1007.9
20260506102733 70 0.0 0.0 0.00 0.00 0.00 53 1008.1
20260506101733 69 0.0 0.0 0.00 0.00 0.00 55 1008.1
20260506100733 68 0.0 0.0 0.00 0.00 0.00 53 1008.2
20260506095733 68 0.0 0.0 0.00 0.00 0.00 56 1008.1
20260506094733 68 0.0 0.0 0.00 0.00 0.00 56 1008.2
20260506093733 68 0.0 0.0 0.00 0.00 0.00 57 1008.1
20260506092733 68 0.0 0.0 0.00 0.00 0.00 55 1008.1
20260506091733 66 0.0 0.0 0.00 0.00 0.00 61 1008.0
20260506090733 66 0.0 0.0 0.00 0.00 0.00 60 1008.1
20260506085733 66 0.0 0.0 0.00 0.00 0.00 62 1008.1
20260506084733 65 0.0 0.0 0.00 0.00 0.00 62 1008.1
20260506083733 65 0.0 0.0 0.00 0.00 0.00 66 1008.0
20260506082733 65 0.0 0.0 0.00 0.00 0.00 64 1008.0
20260506081733 64 0.0 0.0 0.00 0.00 0.00 66 1007.9
20260506080733 65 0.0 0.0 0.00 0.00 0.00 65 1008.0
20260506072733 62 0.0 0.0 0.00 0.00 0.00 75 1008.1
20260506071734 62 0.0 0.0 0.00 0.00 0.00 77 1008.1
20260506070734 61 0.0 0.0 0.00 0.00 0.00 79 1008.1
20260506061734 60 0.0 0.0 0.00 0.00 0.00 87 1007.7
20260506060734 59 0.0 0.0 0.00 0.00 0.00 90 1007.8
20260506050734 55 0.0 0.0 0.00 0.00 0.00 10 1007.7
20260506044734 55 0.0 0.0 0.00 0.00 0.00 10 1007.6
20260506043734 55 0.0 0.0 0.00 0.00 0.00 10 1007.9
20260506042734 55 0.0 0.0 0.00 0.00 0.00 10 1007.6
20260506041734 55 0.0 0.0 0.00 0.00 0.00 10 1007.4
20260506040734 55 0.0 0.0 0.00 0.00 0.00 10 1007.3
20260506035737 55 0.0 0.0 0.00 0.00 0.00 10 1007.1
20260506034733 55 0.0 0.0 0.00 0.00 0.00 10 1007.0
20260506033732 55 0.0 0.0 0.00 0.00 0.00 10 1007.1
20260506032732 55 0.0 0.0 0.00 0.00 0.00 10 1007.1
20260506031733 55 0.0 0.0 0.00 0.00 0.00 10 1007.1
20260506030732 55 0.0 0.0 0.00 0.00 0.00 10 1007.0
20260506025733 55 0.0 0.0 0.00 0.00 0.00 10 1007.0
20260506024733 55 0.0 0.0 0.00 0.00 0.00 10 1007.1
20260506023733 55 0.0 0.0 0.00 0.00 0.00 10 1007.0
20260506022733 56 0.0 0.0 0.00 0.00 0.00 10 1007.0
20260506021733 56 0.0 0.0 0.00 0.00 0.00 10 1007.1
20260506020733 56 0.0 0.0 0.00 0.00 0.00 10 1007.1
20260506015733 56 0.0 0.0 0.00 0.00 0.00 10 1007.0
20260506014733 56 0.0 0.0 0.00 0.00 0.00 10 1007.1
20260506013733 57 0.0 0.0 0.00 0.00 0.00 10 1007.0
20260506012733 57 0.0 0.0 0.00 0.00 0.00 10 1006.6
20260506011733 57 0.0 0.0 0.00 0.00 0.00 10 1006.7
20260506010733 58 0.0 0.0 0.00 0.00 0.00 95 1006.7
20260506005733 58 0.0 0.0 0.00 0.00 0.00 95 1006.8
20260506004733 58 0.0 0.0 0.00 0.00 0.00 94 1006.8
20260506003733 59 0.0 0.0 0.00 0.00 0.00 92 1006.5
20260506002733 58 0.0 0.0 0.00 0.00 0.00 92 1006.4
20260506001733 58 0.0 0.0 0.00 0.00 0.00 92 1006.5
20260506000733 59 0.0 0.0 0.00 0.00 0.00 92 1006.6
20260505235733 58 0.0 0.0 0.00 0.00 0.00 94 1006.6
20260505234733 58 0.0 0.0 0.00 0.00 0.00 94 1006.7
20260505233733 58 0.0 0.0 0.00 0.00 0.00 95 1006.9
20260505232733 58 0.0 0.0 0.00 0.00 0.00 96 1006.9
20260505231733 58 0.0 0.0 0.00 0.00 0.00 95 1006.9
20260505230733 59 0.0 0.0 0.00 0.00 0.00 97 1006.9
20260505225733 60 0.0 0.0 0.00 0.00 0.00 96 1006.7
20260505224733 61 0.0 0.0 0.00 0.00 0.00 94 1006.5
20260505223733 61 0.0 0.0 0.00 0.00 0.00 92 1006.5
20260505222733 62 0.0 0.0 0.00 0.00 0.00 90 1006.5
20260505221733 62 0.0 0.0 0.00 0.00 0.00 89 1006.3
20260505220733 63 0.0 0.0 0.00 0.00 0.00 86 1006.2
20260505215733 63 0.0 0.0 0.00 0.00 0.00 84 1005.9
20260505214733 64 0.0 0.0 0.00 0.00 0.00 80 1005.4
20260505213733 64 0.0 0.0 0.00 0.00 0.00 80 1004.9
20260505212733 64 0.0 0.0 0.00 0.00 0.00 80 1005.0
20260505211733 64 0.0 0.0 0.00 0.00 0.00 80 1005.0
20260505210733 64 0.0 0.0 0.00 0.00 0.00 77 1004.9
20260505205733 64 0.0 0.0 0.00 0.00 0.00 76 1005.0
20260505204733 63 0.0 0.0 0.00 0.00 0.00 76 1004.9
20260505203733 63 0.0 0.0 0.00 0.00 0.00 77 1004.9
20260505202733 63 0.0 0.0 0.00 0.00 0.00 78 1004.8
20260505201733 63 0.0 0.0 0.00 0.00 0.00 77 1004.9
20260505200733 63 0.0 0.0 0.00 0.00 0.00 79 1004.8
20260505195733 63 0.0 0.0 0.00 0.00 0.00 80 1005.0
20260505194733 63 0.0 0.0 0.00 0.00 0.00 80 1005.0
20260505192733 63 0.0 0.0 0.00 0.00 0.00 83 1004.7
20260505191733 63 0.0 0.0 0.00 0.00 0.00 82 1004.7
20260505190733 63 0.0 0.0 0.00 0.00 0.00 80 1004.6
20260505185733 63 0.0 0.0 0.00 0.00 0.00 80 1004.5
20260505184733 63 0.0 0.0 0.00 0.00 0.00 78 1004.6
20260505183733 63 0.0 0.0 0.00 0.00 0.00 78 1004.6
20260505182733 63 0.0 0.0 0.00 0.00 0.00 80 1004.6
20260505181733 63 0.0 0.0 0.00 0.00 0.00 82 1004.6
20260505180734 62 0.0 0.0 0.00 0.00 0.00 83 1004.9
20260505175734 64 0.0 0.0 0.00 0.00 0.00 79 1005.1
20260505174734 64 0.0 0.0 0.00 0.00 0.00 77 1005.0
20260505173733 64 0.0 0.0 0.00 0.00 0.00 74 1005.3
20260505172734 65 0.0 0.0 0.00 0.00 0.00 73 1005.5
20260505171734 66 0.0 0.0 0.00 0.00 0.00 69 1005.1
20260505170734 68 0.0 0.0 0.00 0.00 0.00 59 1005.6
20260505165734 70 0.0 0.0 0.00 0.00 0.00 47 1005.8
20260505164734 73 0.0 0.0 0.00 0.00 0.00 42 1005.4
20260505162734 77 0.0 0.0 0.00 0.00 0.00 35 1004.6
20260505161734 77 0.0 0.0 0.00 0.00 0.00 34 1004.7
20260505160734 78 0.0 0.0 0.00 0.00 0.00 32 1004.7
20260505152733 85 0.0 0.0 0.00 0.00 0.00 27 1005.0
20260505151732 88 0.0 0.0 0.00 0.00 0.00 24 1004.9
20260505150732 89 0.0 0.0 0.00 0.00 0.00 24 1005.0